Regional Weather Roundup
Issued by NWS

Home | Current Version | Previous Version | Graphics & Text | Print | Product List | Glossary On
Versions: 1 2 3 4 5 6 7 8 9 10 11 12 13 14 15 16 17 18 19 20 21 22 23 24 25 26 27 28 29 30 31 32 33 34 35 36 37 38 39 40 41 42 43 44 45 46 47 48 49 50
000
ASUS45 KSLC 250510
RWRUT

UTAH REGIONAL WEATHER ROUNDUP
NATIONAL WEATHER SERVICE SALT LAKE CITY UT
1100 PM MDT TUE APR 24 2018

UTZ001>011-023>025-250600-

NORTHERN UTAH

CITY           SKY/WX    TMP DP  RH WIND       PRES   REMARKS
BRIGHAM CITY   CLEAR     57  20  24 E15       30.28S
HILL AFB       NOT AVBL
LOGAN          CLEAR     54  25  32 E14       30.29S
OGDEN          CLEAR     54  20  26 N3        30.26S
SALT LAKE CITY CLEAR     54  39  57 SW5       30.26S
TOOELE VALLEY  CLEAR     39  32  75 S9        30.28S WCI  33
WENDOVER       CLEAR     53  24  32 NW3       30.28S
HEBER CITY       N/A     41  23  48 E7        30.31S
WEST JORDAN    CLEAR     49  34  56 NW8       30.28S

$$

UTZ011>015-024>027-250600-

CENTRAL/NORTHEAST UTAH

CITY           SKY/WX    TMP DP  RH WIND       PRES   REMARKS
PROVO AIRPORT  CLEAR     51  38  60 E3        30.28R
MOAB/CANYONLAN CLEAR     56  18  22 NE23G31   30.24R
DELTA          CLEAR     52  27  37 N13       30.25S
PRICE          CLEAR     50  20  30 NE18G28   30.29R
ROOSEVELT      CLEAR     46  19  34 SE9       30.39R
VERNAL         CLEAR     44  20  38 NE6       30.38S

$$

UTZ013>016-019>022-027-250600-

SOUTHERN UTAH

CITY           SKY/WX    TMP DP  RH WIND       PRES   REMARKS
BRYCE CANYON   CLEAR     44  20  38 N12       30.30S
CEDAR CITY     CLEAR     51  25  36 N13       30.22R
MILFORD        CLEAR     44  23  43 MISG      30.23S
ST GEORGE      CLEAR     72  24  16 NE18G25   30.04R
HANKSVILLE     CLEAR     59  16  18 MISG      30.24R
BLANDING         N/A     56  13  18 N24G33    30.23F

$$

REGIONAL REPORTS     COLORADO/ARIZONA

CITY           SKY/WX    TMP DP  RH WIND       PRES   REMARKS
CRAIG, CO      CLEAR     31  22  69 SW8       30.40R WCI  23
GRAND JUNCTION CLEAR     50  21  32 NE16      30.32R
RIFLE, CO      CLEAR     45  23  42 NW13      30.36S
MONTROSE, CO   CLEAR     48  16  27 NW13      30.32R
CORTEZ, CO     CLEAR     53  19  26 NE5       30.19R
COLORADO CITY    N/A     54  28  37 CALM      30.16S
PAGE, AZ       CLEAR     72  23  16 N6        30.09R
GRAND CANYON   MOCLDY    44  17  33 CALM      30.22R
KINGMAN, AZ    PTCLDY    71  20  14 S5        30.04R
FLAGSTAFF, AZ  PTCLDY    52  17  25 SW3       30.24R

$$

REGIONAL REPORTS    NEVADA/IDAHO/WYOMING

CITY           SKY/WX    TMP DP  RH WIND       PRES   REMARKS
LAS VEGAS, NV  PTCLDY    82  27  13 CALM      29.94R
ELY, NY        CLEAR     47  13  25 NE12      30.27R
ELKO, NV       CLEAR     52  22  30 E8        30.21R
POCATELLO, ID  CLEAR     43  31  62 NE9       30.30F
BURLEY, ID     CLEAR     48  33  56 E5        30.26S
FORT BRIDGER,    N/A     36  20  53 SE12      30.43S WCI  27
EVANSTON, WY   CLEAR     38  20  48 E10       30.38F WCI  31
ROCK SPRINGS,  CLEAR     32  18  56 SE10      30.42F WCI  24
KEMMERER, WY   CLEAR     36  19  51 E15       30.40F WCI  26

$$



USA.gov is the U.S. government's official web portal to all federal, state and local government web resources and services.